Location: Demmingen
(48.6757°N, 10.4375°E)
Time: 13:42:03
(UTC+00:00)

CZ-2C R/B - Pass Details

Date: 17 August 2024
Orbit: 782 x 869 km, 98.3° (Epoch: 15 September)

Event Time Altitude Azimuth Distance (km) Brightness Sun altitude
Exits shadow 00:16:45 28° 112° (ESE) 1,546 3.9 -26.8°
Maximum altitude 00:18:56 39° 66° (ENE) 1,227 3.8 -26.7°
Drops below altitude 10° 00:23:54 10° 359° (N) 2,428 6.0 -26.5°
Sets 00:26:21 0° 352° (N) 3,351 6.8 -26.4°
